Location: Unspecified
(47.6577°N, 23.5639°E)
Time: 17:51:09
(UTC+03:00)

ISS - Pass Details

Date: 08 February 2017
Orbit: 402 x 409 km, 51.6° (Epoch: 24 May)

Event Time Altitude Azimuth Distance (km) Brightness Sun altitude
Rises 18:53:53 0° 287° (WNW) 2,338 1.3 -13.2°
Reaches altitude 10° 18:56:03 10° 294° (WNW) 1,473 -0.1 -13.5°
Maximum altitude 18:59:13 42° 7° (N) 596 -3.1 -14.1°
Enters shadow 19:00:29 28° 59° (ENE) 805 -2.9 -14.3°
